Location: Albany
(35.0170°S, 117.8920°E)
Time: 16:31:31
(UTC+08:00)

Transit 2A - Pass Details

Date: 31 January 2021
Orbit: 601 x 958 km, 66.7° (Epoch: 02 March)

Event Time Altitude Azimuth Distance (km) Brightness Sun altitude
Rises 22:47:41 0° 201° (SSW) 3,569 10.5 -33.2°
Reaches altitude 10° 22:50:17 10° 195° (SSW) 2,657 9.6 -33.4°
Enters shadow 22:55:16 44° 151° (SSE) 1,297 7.2 -33.9°
Maximum altitude 22:56:21 49° 121° (ESE) 1,227 - -34.0°
Drops below altitude 10° 23:02:28 10° 47° (NE) 2,686 - -34.5°
Sets 23:05:06 0° 41° (NE) 3,611 - -34.7°
